| time (UTC) | temp F | wind direction | speed MPH | gust MPH | rain 1hr in | rain 24hr in | rain mn in | humidity % | barometer mb |
| 20260831010005 | 80 | 229 | 0.0 | 0.0 | 0.00 | 0.00 | 0.00 | 79 | 1019.3 |
| 20260831005505 | 80 | 229 | 0.0 | 0.0 | 0.00 | 0.00 | 0.00 | 79 | 1019.2 |
| 20260831005005 | 80 | 229 | 0.0 | 0.0 | 0.00 | 0.00 | 0.00 | 78 | 1019.1 |
| 20260831004505 | 80 | 229 | 0.0 | 0.0 | 0.00 | 0.00 | 0.00 | 78 | 1019.0 |
| 20260831004005 | 81 | 229 | 0.0 | 0.0 | 0.00 | 0.00 | 0.00 | 78 | 1018.8 |
| 20260831003505 | 81 | 229 | 0.0 | 0.0 | 0.00 | 0.00 | 0.00 | 77 | 1018.8 |
| 20260831003005 | 81 | 229 | 0.0 | 0.0 | 0.00 | 0.00 | 0.00 | 77 | 1018.8 |
| 20260831002505 | 81 | 229 | 0.0 | 0.0 | 0.00 | 0.00 | 0.00 | 76 | 1018.7 |
| 20260831002005 | 82 | 229 | 0.0 | 0.0 | 0.00 | 0.00 | 0.00 | 76 | 1018.6 |
| 20260831001504 | 82 | 229 | 0.0 | 0.0 | 0.00 | 0.00 | 0.00 | 75 | 1018.6 |
| 20260831001005 | 83 | 229 | 0.0 | 0.0 | 0.00 | 0.00 | 0.00 | 74 | 1018.5 |
| 20260831000505 | 83 | 229 | 0.0 | 0.0 | 0.00 | 0.00 | 0.00 | 73 | 1018.5 |
| 20260831000006 | 84 | 229 | 0.0 | 0.0 | 0.00 | 0.00 | 0.00 | 72 | 1018.5 |
| 20260830235505 | 84 | 229 | 0.0 | 0.0 | 0.00 | 0.00 | 0.00 | 71 | 1018.6 |
| 20260830235005 | 85 | 229 | 0.0 | 0.0 | 0.00 | 0.00 | 0.00 | 71 | 1018.5 |
| 20260830234504 | 85 | 229 | 0.0 | 0.0 | 0.00 | 0.00 | 0.00 | 69 | 1018.6 |
| 20260830234004 | 85 | 229 | 0.0 | 0.0 | 0.00 | 0.00 | 0.00 | 69 | 1018.6 |
| 20260830233504 | 85 | 229 | 0.0 | 0.0 | 0.00 | 0.00 | 0.00 | 68 | 1018.7 |
| 20260830233005 | 86 | 229 | 0.0 | 0.0 | 0.00 | 0.00 | 0.00 | 68 | 1018.7 |
| 20260830232504 | 86 | 229 | 0.0 | 0.0 | 0.00 | 0.00 | 0.00 | 69 | 1018.8 |
| 20260830232005 | 86 | 229 | 0.0 | 2.0 | 0.00 | 0.00 | 0.00 | 68 | 1018.8 |
| 20260830231504 | 86 | 229 | 0.0 | 3.0 | 0.00 | 0.00 | 0.00 | 68 | 1018.8 |
| 20260830231005 | 86 | 229 | 0.0 | 3.0 | 0.00 | 0.00 | 0.00 | 67 | 1018.8 |
| 20260830230505 | 87 | 229 | 1.0 | 2.0 | 0.00 | 0.00 | 0.00 | 67 | 1018.8 |
| 20260830230005 | 87 | 229 | 0.0 | 5.0 | 0.00 | 0.00 | 0.00 | 66 | 1018.7 |
| 20260830225504 | 87 | 229 | 2.0 | 5.0 | 0.00 | 0.00 | 0.00 | 66 | 1018.6 |
| 20260830225004 | 87 | 217 | 2.0 | 5.0 | 0.00 | 0.00 | 0.00 | 66 | 1018.7 |
| 20260830224504 | 87 | 215 | 3.0 | 5.0 | 0.00 | 0.00 | 0.00 | 65 | 1018.7 |
| 20260830224004 | 88 | 212 | 3.0 | 5.0 | 0.00 | 0.00 | 0.00 | 65 | 1018.6 |
| 20260830223504 | 88 | 225 | 2.0 | 3.0 | 0.00 | 0.00 | 0.00 | 64 | 1018.7 |
| 20260830223004 | 88 | 226 | 1.0 | 3.0 | 0.00 | 0.00 | 0.00 | 65 | 1018.7 |
| 20260830222504 | 89 | 226 | 3.0 | 6.0 | 0.00 | 0.00 | 0.00 | 64 | 1018.7 |
| 20260830222004 | 89 | 234 | 2.0 | 6.0 | 0.00 | 0.00 | 0.00 | 63 | 1018.6 |
| 20260830221505 | 89 | 235 | 3.0 | 6.0 | 0.00 | 0.00 | 0.00 | 62 | 1018.6 |
| 20260830221005 | 90 | 212 | 3.0 | 5.0 | 0.00 | 0.00 | 0.00 | 61 | 1018.6 |
| 20260830220504 | 90 | 220 | 2.0 | 6.0 | 0.00 | 0.00 | 0.00 | 62 | 1018.7 |
| 20260830220004 | 90 | 224 | 3.0 | 6.0 | 0.00 | 0.00 | 0.00 | 61 | 1018.7 |
| 20260830215504 | 91 | 227 | 3.0 | 6.0 | 0.00 | 0.00 | 0.00 | 60 | 1018.6 |
| 20260830215004 | 91 | 220 | 2.0 | 3.0 | 0.00 | 0.00 | 0.00 | 60 | 1018.6 |
| 20260830214504 | 91 | 220 | 1.0 | 6.0 | 0.00 | 0.00 | 0.00 | 61 | 1018.6 |
| 20260830214004 | 90 | 221 | 2.0 | 6.0 | 0.00 | 0.00 | 0.00 | 61 | 1018.6 |
| 20260830213505 | 91 | 229 | 3.0 | 6.0 | 0.00 | 0.00 | 0.00 | 59 | 1018.5 |
| 20260830213005 | 91 | 225 | 2.0 | 8.0 | 0.00 | 0.00 | 0.00 | 61 | 1018.5 |
| 20260830212504 | 91 | 213 | 2.0 | 8.0 | 0.00 | 0.00 | 0.00 | 60 | 1018.5 |
| 20260830212005 | 91 | 228 | 2.0 | 6.0 | 0.00 | 0.00 | 0.00 | 59 | 1018.4 |
| 20260830211504 | 91 | 235 | 4.0 | 6.0 | 0.00 | 0.00 | 0.00 | 58 | 1018.4 |
| 20260830211004 | 91 | 228 | 3.0 | 7.0 | 0.00 | 0.00 | 0.00 | 59 | 1018.4 |
| 20260830210504 | 92 | 227 | 2.0 | 7.0 | 0.00 | 0.00 | 0.00 | 59 | 1018.4 |
| 20260830210004 | 92 | 220 | 3.0 | 7.0 | 0.00 | 0.00 | 0.00 | 59 | 1018.4 |
| 20260830205505 | 92 | 119 | 1.0 | 3.0 | 0.00 | 0.00 | 0.00 | 62 | 1018.5 |
| 20260830205005 | 92 | 180 | 1.0 | 3.0 | 0.00 | 0.00 | 0.00 | 62 | 1018.6 |
| 20260830204504 | 91 | 216 | 2.0 | 6.0 | 0.00 | 0.00 | 0.00 | 60 | 1018.6 |
| 20260830204005 | 91 | 254 | 2.0 | 6.0 | 0.00 | 0.00 | 0.00 | 61 | 1018.7 |
| 20260830203504 | 92 | 225 | 3.0 | 5.0 | 0.00 | 0.00 | 0.00 | 60 | 1018.7 |
| 20260830203004 | 92 | 221 | 1.0 | 6.0 | 0.00 | 0.00 | 0.00 | 59 | 1018.7 |
| 20260830202504 | 92 | 222 | 1.0 | 6.0 | 0.00 | 0.00 | 0.00 | 61 | 1018.8 |
| 20260830202005 | 92 | 238 | 1.0 | 6.0 | 0.00 | 0.00 | 0.00 | 61 | 1018.9 |
| 20260830201505 | 91 | 281 | 1.0 | 5.0 | 0.00 | 0.00 | 0.00 | 61 | 1018.9 |
| 20260830201004 | 91 | 285 | 1.0 | 5.0 | 0.00 | 0.00 | 0.00 | 63 | 1018.9 |
| 20260830200504 | 92 | 327 | 2.0 | 5.0 | 0.00 | 0.00 | 0.00 | 64 | 1018.9 |
| 20260830200005 | 92 | 221 | 1.0 | 3.0 | 0.00 | 0.00 | 0.00 | 61 | 1019.0 |
| 20260830195505 | 92 | 240 | 2.0 | 3.0 | 0.00 | 0.00 | 0.00 | 61 | 1019.1 |
| 20260830195004 | 91 | 223 | 1.0 | 5.0 | 0.00 | 0.00 | 0.00 | 64 | 1019.2 |
| 20260830194504 | 90 | 292 | 2.0 | 6.0 | 0.00 | 0.00 | 0.00 | 64 | 1019.2 |
| 20260830194005 | 90 | 219 | 3.0 | 7.0 | 0.00 | 0.00 | 0.00 | 65 | 1019.4 |
| 20260830193504 | 90 | 225 | 3.0 | 7.0 | 0.00 | 0.00 | 0.00 | 64 | 1019.5 |
| 20260830193005 | 90 | 218 | 3.0 | 7.0 | 0.00 | 0.00 | 0.00 | 63 | 1019.7 |
| 20260830192504 | 90 | 27 | 0.0 | 5.0 | 0.00 | 0.00 | 0.00 | 67 | 1019.8 |
| 20260830192004 | 90 | 29 | 2.0 | 5.0 | 0.00 | 0.00 | 0.00 | 64 | 1019.8 |
| 20260830191504 | 90 | 225 | 2.0 | 5.0 | 0.00 | 0.00 | 0.00 | 64 | 1020.0 |
| 20260830191005 | 90 | 185 | 1.0 | 7.0 | 0.00 | 0.00 | 0.00 | 64 | 1019.9 |
| 20260830190504 | 90 | 230 | 2.0 | 7.0 | 0.00 | 0.00 | 0.00 | 63 | 1020.0 |
| 20260830190005 | 90 | 327 | 2.0 | 7.0 | 0.00 | 0.00 | 0.00 | 66 | 1020.1 |
| 20260830185504 | 89 | 304 | 1.0 | 5.0 | 0.00 | 0.00 | 0.00 | 67 | 1020.1 |
| 20260830185005 | 89 | 220 | 2.0 | 5.0 | 0.00 | 0.00 | 0.00 | 66 | 1020.2 |
| 20260830184505 | 89 | 19 | 2.0 | 3.0 | 0.00 | 0.00 | 0.00 | 67 | 1020.3 |
| 20260830184005 | 89 | 324 | 1.0 | 5.0 | 0.00 | 0.00 | 0.00 | 66 | 1020.3 |
| 20260830183509 | 89 | 301 | 1.0 | 5.0 | 0.00 | 0.00 | 0.00 | 65 | 1020.4 |
| 20260830183006 | 90 | 188 | 1.0 | 6.0 | 0.00 | 0.00 | 0.00 | 65 | 1020.5 |
| 20260830182514 | 89 | 302 | 1.0 | 9.0 | 0.00 | 0.00 | 0.00 | 65 | 1020.6 |
| 20260830182005 | 89 | 218 | 3.0 | 9.0 | 0.00 | 0.00 | 0.00 | 66 | 1020.7 |
| 20260830181504 | 89 | 227 | 1.0 | 3.0 | 0.00 | 0.00 | 0.00 | 68 | 1020.8 |
| 20260830181004 | 89 | 222 | 1.0 | 6.0 | 0.00 | 0.00 | 0.00 | 68 | 1020.9 |
| 20260830180504 | 87 | 38 | 1.0 | 7.0 | 0.00 | 0.00 | 0.00 | 69 | 1021.0 |
| 20260830180004 | 88 | 233 | 4.0 | 7.0 | 0.00 | 0.00 | 0.00 | 67 | 1021.0 |
| 20260830175504 | 88 | 215 | 2.0 | 5.0 | 0.00 | 0.00 | 0.00 | 68 | 1021.1 |
| 20260830175004 | 87 | 219 | 1.0 | 5.0 | 0.00 | 0.00 | 0.00 | 70 | 1021.2 |
| 20260830174504 | 86 | 241 | 3.0 | 5.0 | 0.00 | 0.00 | 0.00 | 70 | 1021.2 |
| 20260830174006 | 86 | 355 | 2.0 | 5.0 | 0.00 | 0.00 | 0.00 | 71 | 1021.2 |
| 20260830173505 | 87 | 231 | 2.0 | 5.0 | 0.00 | 0.00 | 0.00 | 69 | 1021.3 |
| 20260830173005 | 87 | 322 | 0.0 | 8.0 | 0.00 | 0.00 | 0.00 | 70 | 1021.3 |
| 20260830172504 | 87 | 221 | 3.0 | 8.0 | 0.00 | 0.00 | 0.00 | 69 | 1021.4 |
| 20260830172005 | 86 | 174 | 1.0 | 5.0 | 0.00 | 0.00 | 0.00 | 73 | 1021.5 |
| 20260830171512 | 85 | 240 | 1.0 | 5.0 | 0.00 | 0.00 | 0.00 | 73 | 1021.5 |
| 20260830171011 | 85 | 217 | 2.0 | 6.0 | 0.00 | 0.00 | 0.00 | 70 | 1021.5 |
| 20260830170511 | 85 | 251 | 2.0 | 6.0 | 0.00 | 0.00 | 0.00 | 74 | 1021.5 |
| 20260830170011 | 85 | 218 | 2.0 | 9.0 | 0.00 | 0.00 | 0.00 | 73 | 1021.6 |
| 20260830165512 | 85 | 232 | 3.0 | 9.0 | 0.00 | 0.00 | 0.00 | 73 | 1021.7 |
| 20260830165011 | 84 | 348 | 1.0 | 3.0 | 0.00 | 0.00 | 0.00 | 74 | 1021.6 |
| 20260830164511 | 84 | 305 | 1.0 | 6.0 | 0.00 | 0.00 | 0.00 | 74 | 1021.7 |
| 20260830164011 | 84 | 299 | 2.0 | 6.0 | 0.00 | 0.00 | 0.00 | 75 | 1021.8 |
| 20260830163511 | 83 | 10 | 1.0 | 3.0 | 0.00 | 0.00 | 0.00 | 76 | 1021.8 |
| 20260830163012 | 82 | 223 | 2.0 | 3.0 | 0.00 | 0.00 | 0.00 | 76 | 1021.9 |
| 20260830162511 | 82 | 221 | 1.0 | 5.0 | 0.00 | 0.00 | 0.00 | 77 | 1021.9 |
| 20260830162011 | 82 | 209 | 2.0 | 5.0 | 0.00 | 0.00 | 0.00 | 76 | 1021.9 |
| 20260830161511 | 82 | 315 | 2.0 | 5.0 | 0.00 | 0.00 | 0.00 | 77 | 1021.9 |
| 20260830161012 | 82 | 213 | 0.0 | 6.0 | 0.00 | 0.00 | 0.00 | 76 | 1022.0 |
| 20260830160510 | 82 | 218 | 3.0 | 6.0 | 0.00 | 0.00 | 0.00 | 76 | 1022.1 |
| 20260830160010 | 81 | 224 | 2.0 | 5.0 | 0.00 | 0.00 | 0.00 | 77 | 1022.2 |
| 20260830155510 | 81 | 218 | 1.0 | 6.0 | 0.00 | 0.00 | 0.00 | 77 | 1022.3 |
| 20260830155010 | 81 | 244 | 2.0 | 6.0 | 0.00 | 0.00 | 0.00 | 78 | 1022.3 |
| 20260830154510 | 81 | 222 | 1.0 | 6.0 | 0.00 | 0.00 | 0.00 | 78 | 1022.3 |
| 20260830154011 | 82 | 230 | 3.0 | 6.0 | 0.00 | 0.00 | 0.00 | 77 | 1022.3 |
| 20260830153511 | 82 | 191 | 1.0 | 6.0 | 0.00 | 0.00 | 0.00 | 77 | 1022.3 |
| 20260830153011 | 82 | 119 | 2.0 | 5.0 | 0.00 | 0.00 | 0.00 | 79 | 1022.4 |
| 20260830152511 | 81 | 202 | 2.0 | 7.0 | 0.00 | 0.00 | 0.00 | 79 | 1022.4 |
| 20260830152011 | 81 | 219 | 2.0 | 7.0 | 0.00 | 0.00 | 0.00 | 80 | 1022.3 |
| 20260830151510 | 80 | 235 | 4.0 | 7.0 | 0.00 | 0.00 | 0.00 | 80 | 1022.3 |
| 20260830151011 | 80 | 224 | 3.0 | 6.0 | 0.00 | 0.00 | 0.00 | 81 | 1022.3 |
| 20260830150512 | 80 | 190 | 2.0 | 6.0 | 0.00 | 0.00 | 0.00 | 82 | 1022.3 |
| 20260830150011 | 79 | 231 | 3.0 | 6.0 | 0.00 | 0.00 | 0.00 | 83 | 1022.4 |
| 20260830145511 | 79 | 254 | 3.0 | 6.0 | 0.00 | 0.00 | 0.00 | 83 | 1022.4 |
| 20260830145010 | 79 | 117 | 0.0 | 3.0 | 0.00 | 0.00 | 0.00 | 84 | 1022.4 |
| 20260830144511 | 79 | 116 | 0.0 | 5.0 | 0.00 | 0.00 | 0.00 | 84 | 1022.4 |
| 20260830144010 | 78 | 227 | 2.0 | 6.0 | 0.00 | 0.00 | 0.00 | 82 | 1022.5 |
| 20260830143511 | 78 | 233 | 3.0 | 6.0 | 0.00 | 0.00 | 0.00 | 85 | 1022.6 |
| 20260830143011 | 78 | 213 | 1.0 | 3.0 | 0.00 | 0.00 | 0.00 | 86 | 1022.6 |
| 20260830142510 | 78 | 238 | 2.0 | 3.0 | 0.00 | 0.00 | 0.00 | 88 | 1022.5 |
| 20260830142012 | 77 | 223 | 2.0 | 3.0 | 0.00 | 0.00 | 0.00 | 88 | 1022.6 |
| 20260830141511 | 77 | 230 | 3.0 | 6.0 | 0.00 | 0.00 | 0.00 | 89 | 1022.6 |
| 20260830141011 | 77 | 233 | 2.0 | 6.0 | 0.00 | 0.00 | 0.00 | 90 | 1022.5 |
| 20260830140510 | 76 | 221 | 2.0 | 5.0 | 0.00 | 0.00 | 0.00 | 91 | 1022.6 |
| 20260830140011 | 76 | 221 | 2.0 | 6.0 | 0.00 | 0.00 | 0.00 | 91 | 1022.7 |
| 20260830135511 | 76 | 238 | 3.0 | 6.0 | 0.00 | 0.00 | 0.00 | 92 | 1022.6 |
| 20260830135011 | 76 | 204 | 3.0 | 6.0 | 0.00 | 0.00 | 0.00 | 93 | 1022.8 |
| 20260830134510 | 75 | 225 | 3.0 | 6.0 | 0.00 | 0.00 | 0.00 | 94 | 1022.9 |
| 20260830134011 | 75 | 236 | 0.0 | 3.0 | 0.00 | 0.00 | 0.00 | 95 | 1022.9 |
| 20260830133511 | 75 | 124 | 1.0 | 3.0 | 0.00 | 0.00 | 0.00 | 95 | 1023.0 |
| 20260830133011 | 75 | 118 | 1.0 | 3.0 | 0.00 | 0.00 | 0.00 | 95 | 1023.1 |
| 20260830132510 | 75 | 127 | 1.0 | 3.0 | 0.00 | 0.00 | 0.00 | 95 | 1023.2 |
| 20260830132011 | 75 | 128 | 1.0 | 3.0 | 0.00 | 0.00 | 0.00 | 95 | 1023.2 |
| 20260830131511 | 74 | 121 | 0.0 | 3.0 | 0.00 | 0.00 | 0.00 | 95 | 1023.2 |
| 20260830131011 | 74 | 214 | 0.0 | 2.0 | 0.00 | 0.00 | 0.00 | 95 | 1023.2 |
| 20260830130511 | 74 | 214 | 0.0 | 2.0 | 0.00 | 0.00 | 0.00 | 95 | 1023.3 |
| 20260830130011 | 74 | 117 | 0.0 | 0.0 | 0.00 | 0.00 | 0.00 | 95 | 1023.3 |
| 20260830125510 | 74 | 117 | 0.0 | 0.0 | 0.00 | 0.00 | 0.00 | 95 | 1023.4 |
| 20260830125011 | 73 | 117 | 0.0 | 0.0 | 0.00 | 0.00 | 0.00 | 95 | 1023.5 |
| 20260830124511 | 73 | 117 | 0.0 | 0.0 | 0.00 | 0.00 | 0.00 | 95 | 1023.5 |
| 20260830124010 | 73 | 117 | 0.0 | 0.0 | 0.00 | 0.00 | 0.00 | 95 | 1023.5 |
| 20260830123511 | 73 | 117 | 0.0 | 0.0 | 0.00 | 0.00 | 0.00 | 95 | 1023.6 |
| 20260830123010 | 73 | 117 | 0.0 | 0.0 | 0.00 | 0.00 | 0.00 | 95 | 1023.5 |
| 20260830122511 | 73 | 117 | 0.0 | 0.0 | 0.00 | 0.00 | 0.00 | 95 | 1023.6 |
| 20260830122010 | 73 | 117 | 0.0 | 0.0 | 0.00 | 0.00 | 0.00 | 95 | 1023.6 |
| 20260830121510 | 73 | 117 | 0.0 | 0.0 | 0.00 | 0.00 | 0.00 | 95 | 1023.5 |
| 20260830121011 | 73 | 117 | 0.0 | 0.0 | 0.00 | 0.00 | 0.00 | 95 | 1023.5 |
| 20260830120510 | 72 | 110 | 0.0 | 0.0 | 0.00 | 0.00 | 0.00 | 95 | 1023.5 |
| 20260830120010 | 72 | 110 | 0.0 | 0.0 | 0.00 | 0.00 | 0.00 | 95 | 1023.5 |
| 20260830115510 | 72 | 110 | 0.0 | 0.0 | 0.00 | 0.00 | 0.00 | 95 | 1023.5 |
| 20260830115011 | 72 | 110 | 0.0 | 0.0 | 0.00 | 0.00 | 0.00 | 95 | 1023.4 |
| 20260830114510 | 72 | 110 | 0.0 | 0.0 | 0.00 | 0.00 | 0.00 | 95 | 1023.4 |
| 20260830114011 | 72 | 110 | 0.0 | 0.0 | 0.00 | 0.00 | 0.00 | 95 | 1023.3 |
| 20260830113510 | 72 | 110 | 0.0 | 0.0 | 0.00 | 0.00 | 0.00 | 95 | 1023.3 |
| 20260830113011 | 72 | 110 | 0.0 | 0.0 | 0.00 | 0.00 | 0.00 | 95 | 1023.3 |
| 20260830112510 | 72 | 110 | 0.0 | 0.0 | 0.00 | 0.00 | 0.00 | 95 | 1023.3 |
| 20260830112010 | 72 | 110 | 0.0 | 0.0 | 0.00 | 0.00 | 0.00 | 95 | 1023.2 |
| 20260830111512 | 72 | 110 | 0.0 | 0.0 | 0.00 | 0.00 | 0.00 | 95 | 1023.2 |
| 20260830111011 | 72 | 110 | 0.0 | 0.0 | 0.00 | 0.00 | 0.00 | 95 | 1023.2 |
| 20260830110510 | 72 | 110 | 0.0 | 0.0 | 0.00 | 0.00 | 0.00 | 95 | 1023.1 |
| 20260830110011 | 72 | 110 | 0.0 | 0.0 | 0.00 | 0.00 | 0.00 | 95 | 1023.0 |
| 20260830105510 | 72 | 110 | 0.0 | 0.0 | 0.00 | 0.00 | 0.00 | 95 | 1023.0 |
| 20260830105011 | 72 | 110 | 0.0 | 0.0 | 0.00 | 0.00 | 0.00 | 95 | 1023.0 |
| 20260830104510 | 72 | 110 | 0.0 | 0.0 | 0.00 | 0.00 | 0.00 | 95 | 1022.9 |
| 20260830104011 | 72 | 110 | 0.0 | 0.0 | 0.00 | 0.00 | 0.00 | 95 | 1023.0 |
| 20260830103511 | 72 | 110 | 0.0 | 0.0 | 0.00 | 0.00 | 0.00 | 95 | 1022.9 |
| 20260830103011 | 72 | 110 | 0.0 | 0.0 | 0.00 | 0.00 | 0.00 | 95 | 1022.8 |
| 20260830102510 | 71 | 110 | 0.0 | 0.0 | 0.00 | 0.00 | 0.00 | 95 | 1022.7 |
| 20260830102010 | 71 | 110 | 0.0 | 0.0 | 0.00 | 0.00 | 0.00 | 95 | 1022.7 |
| 20260830101510 | 71 | 110 | 0.0 | 0.0 | 0.00 | 0.00 | 0.00 | 95 | 1022.7 |
| 20260830101010 | 71 | 110 | 0.0 | 0.0 | 0.00 | 0.00 | 0.00 | 95 | 1022.7 |
| 20260830100510 | 71 | 110 | 0.0 | 0.0 | 0.00 | 0.00 | 0.00 | 95 | 1022.7 |
| 20260830100012 | 71 | 110 | 0.0 | 0.0 | 0.00 | 0.00 | 0.00 | 95 | 1022.6 |
| 20260830095510 | 71 | 110 | 0.0 | 0.0 | 0.00 | 0.00 | 0.00 | 95 | 1022.5 |
| 20260830095011 | 71 | 110 | 0.0 | 0.0 | 0.00 | 0.00 | 0.00 | 95 | 1022.5 |
| 20260830094510 | 71 | 110 | 0.0 | 0.0 | 0.00 | 0.00 | 0.00 | 95 | 1022.5 |
| 20260830094011 | 71 | 110 | 0.0 | 0.0 | 0.00 | 0.00 | 0.00 | 95 | 1022.4 |
| 20260830093510 | 71 | 110 | 0.0 | 0.0 | 0.00 | 0.00 | 0.00 | 95 | 1022.4 |
| 20260830093010 | 70 | 110 | 0.0 | 0.0 | 0.00 | 0.00 | 0.00 | 95 | 1022.4 |
| 20260830092511 | 70 | 110 | 0.0 | 0.0 | 0.00 | 0.00 | 0.00 | 95 | 1022.5 |
| 20260830092011 | 70 | 110 | 0.0 | 0.0 | 0.00 | 0.00 | 0.00 | 95 | 1022.5 |
| 20260830091511 | 70 | 110 | 0.0 | 0.0 | 0.00 | 0.00 | 0.00 | 95 | 1022.4 |
| 20260830091012 | 70 | 110 | 0.0 | 0.0 | 0.00 | 0.00 | 0.00 | 95 | 1022.4 |
| 20260830090510 | 70 | 110 | 0.0 | 0.0 | 0.00 | 0.00 | 0.00 | 95 | 1022.4 |
| 20260830090010 | 70 | 110 | 0.0 | 0.0 | 0.00 | 0.00 | 0.00 | 95 | 1022.4 |
| 20260830085511 | 70 | 110 | 0.0 | 0.0 | 0.00 | 0.00 | 0.00 | 95 | 1022.5 |
| 20260830085011 | 70 | 110 | 0.0 | 0.0 | 0.00 | 0.00 | 0.00 | 95 | 1022.5 |
| 20260830084511 | 70 | 110 | 0.0 | 0.0 | 0.00 | 0.00 | 0.00 | 95 | 1022.5 |
| 20260830084010 | 70 | 110 | 0.0 | 0.0 | 0.00 | 0.00 | 0.00 | 95 | 1022.6 |
| 20260830083510 | 70 | 110 | 0.0 | 0.0 | 0.00 | 0.00 | 0.00 | 95 | 1022.6 |
| 20260830083010 | 70 | 110 | 0.0 | 0.0 | 0.00 | 0.00 | 0.00 | 95 | 1022.5 |
| 20260830082510 | 70 | 110 | 0.0 | 0.0 | 0.00 | 0.00 | 0.00 | 95 | 1022.6 |
| 20260830082011 | 70 | 110 | 0.0 | 0.0 | 0.00 | 0.00 | 0.00 | 95 | 1022.6 |
| 20260830081510 | 70 | 110 | 0.0 | 0.0 | 0.00 | 0.00 | 0.00 | 95 | 1022.5 |
| 20260830081011 | 70 | 110 | 0.0 | 0.0 | 0.00 | 0.00 | 0.00 | 95 | 1022.7 |
| 20260830080512 | 70 | 110 | 0.0 | 0.0 | 0.00 | 0.00 | 0.00 | 95 | 1022.7 |
| 20260830080010 | 70 | 110 | 0.0 | 0.0 | 0.00 | 0.00 | 0.00 | 95 | 1022.6 |
| 20260830075510 | 70 | 110 | 0.0 | 0.0 | 0.00 | 0.00 | 0.00 | 95 | 1022.6 |
| 20260830075010 | 70 | 110 | 0.0 | 0.0 | 0.00 | 0.00 | 0.00 | 95 | 1022.7 |
| 20260830074510 | 70 | 110 | 0.0 | 0.0 | 0.00 | 0.00 | 0.00 | 95 | 1022.7 |
| 20260830074010 | 70 | 110 | 0.0 | 0.0 | 0.00 | 0.00 | 0.00 | 95 | 1022.6 |
| 20260830073510 | 71 | 110 | 0.0 | 0.0 | 0.00 | 0.00 | 0.00 | 95 | 1022.7 |
| 20260830073011 | 71 | 110 | 0.0 | 0.0 | 0.00 | 0.00 | 0.00 | 95 | 1022.7 |
| 20260830072510 | 71 | 110 | 0.0 | 0.0 | 0.00 | 0.00 | 0.00 | 95 | 1022.6 |
| 20260830072010 | 71 | 110 | 0.0 | 0.0 | 0.00 | 0.00 | 0.00 | 95 | 1022.6 |
| 20260830071510 | 71 | 110 | 0.0 | 0.0 | 0.00 | 0.00 | 0.00 | 95 | 1022.7 |
| 20260830071010 | 71 | 110 | 0.0 | 0.0 | 0.00 | 0.00 | 0.00 | 95 | 1022.7 |
| 20260830070510 | 71 | 110 | 0.0 | 0.0 | 0.00 | 0.00 | 0.00 | 95 | 1022.6 |
| 20260830070011 | 71 | 110 | 0.0 | 0.0 | 0.00 | 0.00 | 0.00 | 95 | 1022.7 |
| 20260830065510 | 71 | 110 | 0.0 | 0.0 | 0.00 | 0.00 | 0.00 | 95 | 1022.8 |
| 20260830065011 | 71 | 110 | 0.0 | 0.0 | 0.00 | 0.00 | 0.00 | 95 | 1022.8 |
| 20260830064511 | 71 | 110 | 0.0 | 0.0 | 0.00 | 0.00 | 0.00 | 95 | 1022.9 |
| 20260830064010 | 71 | 110 | 0.0 | 0.0 | 0.00 | 0.00 | 0.00 | 95 | 1022.9 |
| 20260830063510 | 71 | 110 | 0.0 | 0.0 | 0.00 | 0.00 | 0.00 | 95 | 1023.0 |
| 20260830063010 | 71 | 110 | 0.0 | 0.0 | 0.00 | 0.00 | 0.00 | 95 | 1023.0 |
| 20260830062510 | 71 | 110 | 0.0 | 0.0 | 0.00 | 0.00 | 0.00 | 95 | 1023.1 |
| 20260830062011 | 72 | 110 | 0.0 | 0.0 | 0.00 | 0.00 | 0.00 | 94 | 1023.0 |
| 20260830061511 | 72 | 110 | 0.0 | 0.0 | 0.00 | 0.00 | 0.00 | 94 | 1023.1 |
| 20260830061010 | 72 | 110 | 0.0 | 1.0 | 0.00 | 0.00 | 0.00 | 94 | 1023.1 |
| 20260830060511 | 72 | 110 | 0.0 | 1.0 | 0.00 | 0.00 | 0.00 | 94 | 1023.1 |
| 20260830060010 | 72 | 109 | 0.0 | 1.0 | 0.00 | 0.00 | 0.00 | 94 | 1023.1 |
| 20260830055513 | 72 | 109 | 0.0 | 0.0 | 0.00 | 0.00 | 0.00 | 94 | 1023.1 |
| 20260830055010 | 72 | 109 | 0.0 | 0.0 | 0.00 | 0.00 | 0.00 | 94 | 1023.1 |
| 20260830054510 | 72 | 109 | 0.0 | 0.0 | 0.00 | 0.00 | 0.00 | 94 | 1023.0 |
| 20260830054011 | 72 | 109 | 0.0 | 0.0 | 0.00 | 0.00 | 0.00 | 94 | 1022.9 |
| 20260830053510 | 72 | 109 | 0.0 | 0.0 | 0.00 | 0.00 | 0.00 | 94 | 1023.0 |
| 20260830053011 | 72 | 109 | 0.0 | 0.0 | 0.00 | 0.00 | 0.00 | 94 | 1023.0 |
| 20260830052510 | 72 | 109 | 0.0 | 0.0 | 0.00 | 0.00 | 0.00 | 94 | 1023.1 |
| 20260830052011 | 72 | 109 | 0.0 | 0.0 | 0.00 | 0.00 | 0.00 | 94 | 1023.2 |
| 20260830051509 | 72 | 109 | 0.0 | 0.0 | 0.00 | 0.00 | 0.00 | 94 | 1023.2 |
| 20260830051010 | 72 | 109 | 0.0 | 0.0 | 0.00 | 0.00 | 0.00 | 93 | 1023.3 |
| 20260830050509 | 72 | 109 | 0.0 | 0.0 | 0.00 | 0.00 | 0.00 | 93 | 1023.3 |
| 20260830050010 | 73 | 109 | 0.0 | 0.0 | 0.00 | 0.00 | 0.00 | 93 | 1023.3 |
| 20260830045510 | 73 | 109 | 0.0 | 0.0 | 0.00 | 0.00 | 0.00 | 93 | 1023.4 |
| 20260830045010 | 73 | 109 | 0.0 | 0.0 | 0.00 | 0.00 | 0.00 | 93 | 1023.4 |
| 20260830044510 | 73 | 109 | 0.0 | 0.0 | 0.00 | 0.00 | 0.00 | 93 | 1023.3 |
| 20260830044010 | 73 | 109 | 0.0 | 0.0 | 0.00 | 0.00 | 0.00 | 93 | 1023.4 |
| 20260830043511 | 73 | 109 | 0.0 | 0.0 | 0.00 | 0.00 | 0.00 | 93 | 1023.4 |
| 20260830043010 | 73 | 109 | 0.0 | 0.0 | 0.00 | 0.00 | 0.00 | 93 | 1023.3 |
| 20260830042510 | 73 | 109 | 0.0 | 0.0 | 0.00 | 0.00 | 0.00 | 93 | 1023.2 |
| 20260830042010 | 73 | 109 | 0.0 | 0.0 | 0.00 | 0.00 | 0.00 | 93 | 1023.2 |
| 20260830041510 | 73 | 109 | 0.0 | 0.0 | 0.00 | 0.00 | 0.00 | 92 | 1023.2 |
| 20260830041010 | 74 | 109 | 0.0 | 0.0 | 0.00 | 0.00 | 0.00 | 92 | 1023.2 |
| 20260830040510 | 74 | 109 | 0.0 | 1.0 | 0.00 | 0.00 | 0.00 | 92 | 1023.1 |
| 20260830040010 | 74 | 107 | 0.0 | 1.0 | 0.00 | 0.00 | 0.00 | 92 | 1023.1 |
| 20260830035510 | 74 | 133 | 0.0 | 2.0 | 0.00 | 0.00 | 0.00 | 92 | 1023.0 |
| 20260830035010 | 74 | 133 | 0.0 | 2.0 | 0.00 | 0.00 | 0.00 | 92 | 1023.0 |
| 20260830034510 | 74 | 133 | 0.0 | 2.0 | 0.00 | 0.00 | 0.00 | 92 | 1022.9 |
| 20260830034010 | 74 | 133 | 0.0 | 0.0 | 0.00 | 0.00 | 0.00 | 92 | 1022.9 |
| 20260830033510 | 74 | 133 | 0.0 | 0.0 | 0.00 | 0.00 | 0.00 | 91 | 1022.8 |
| 20260830033011 | 74 | 133 | 0.0 | 3.0 | 0.00 | 0.00 | 0.00 | 91 | 1022.8 |
| 20260830032509 | 74 | 133 | 0.0 | 3.0 | 0.00 | 0.00 | 0.00 | 91 | 1022.7 |
| 20260830032010 | 74 | 115 | 0.0 | 0.0 | 0.00 | 0.00 | 0.00 | 91 | 1022.7 |
| 20260830031510 | 74 | 115 | 0.0 | 2.0 | 0.00 | 0.00 | 0.00 | 91 | 1022.6 |
| 20260830031010 | 74 | 115 | 0.0 | 3.0 | 0.00 | 0.00 | 0.00 | 91 | 1022.7 |
| 20260830030510 | 74 | 115 | 1.0 | 3.0 | 0.00 | 0.00 | 0.00 | 90 | 1022.6 |
| 20260830030011 | 74 | 105 | 0.0 | 3.0 | 0.00 | 0.00 | 0.00 | 90 | 1022.5 |
| 20260830025510 | 75 | 104 | 0.0 | 3.0 | 0.00 | 0.00 | 0.00 | 90 | 1022.5 |
| 20260830025010 | 75 | 102 | 0.0 | 3.0 | 0.00 | 0.00 | 0.00 | 90 | 1022.6 |
| 20260830024509 | 75 | 140 | 0.0 | 3.0 | 0.00 | 0.00 | 0.00 | 90 | 1022.5 |
| 20260830024010 | 75 | 117 | 0.0 | 2.0 | 0.00 | 0.00 | 0.00 | 89 | 1022.4 |
| 20260830023510 | 75 | 116 | 0.0 | 3.0 | 0.00 | 0.00 | 0.00 | 89 | 1022.5 |
| 20260830023010 | 75 | 116 | 0.0 | 3.0 | 0.00 | 0.00 | 0.00 | 89 | 1022.5 |
| 20260830022509 | 75 | 119 | 0.0 | 3.0 | 0.00 | 0.00 | 0.00 | 89 | 1022.5 |
| 20260830022010 | 75 | 125 | 0.0 | 3.0 | 0.00 | 0.00 | 0.00 | 89 | 1022.4 |
| 20260830021509 | 75 | 109 | 1.0 | 2.0 | 0.00 | 0.00 | 0.00 | 89 | 1022.4 |
| 20260830021011 | 75 | 108 | 0.0 | 0.0 | 0.00 | 0.00 | 0.00 | 88 | 1022.5 |
| 20260830020510 | 75 | 108 | 0.0 | 0.0 | 0.00 | 0.00 | 0.00 | 88 | 1022.4 |
| 20260830020010 | 75 | 108 | 0.0 | 0.0 | 0.00 | 0.00 | 0.00 | 88 | 1022.4 |
| 20260830015509 | 75 | 108 | 0.0 | 0.0 | 0.00 | 0.00 | 0.00 | 87 | 1022.4 |
| 20260830015010 | 76 | 108 | 0.0 | 2.0 | 0.00 | 0.00 | 0.00 | 87 | 1022.3 |
| 20260830014510 | 76 | 108 | 0.0 | 2.0 | 0.00 | 0.00 | 0.00 | 87 | 1022.2 |
| 20260830014010 | 76 | 108 | 0.0 | 0.0 | 0.00 | 0.00 | 0.00 | 87 | 1022.2 |
| 20260830013510 | 76 | 108 | 0.0 | 0.0 | 0.00 | 0.00 | 0.00 | 86 | 1022.2 |
| 20260830013010 | 76 | 108 | 0.0 | 0.0 | 0.00 | 0.00 | 0.00 | 86 | 1022.3 |
| 20260830012510 | 76 | 108 | 0.0 | 0.0 | 0.00 | 0.00 | 0.00 | 86 | 1022.2 |
| 20260830012010 | 76 | 108 | 0.0 | 0.0 | 0.00 | 0.00 | 0.00 | 85 | 1022.1 |
| 20260830011510 | 76 | 108 | 0.0 | 0.0 | 0.00 | 0.00 | 0.00 | 85 | 1022.1 |
| 20260830011010 | 76 | 108 | 0.0 | 0.0 | 0.00 | 0.00 | 0.00 | 84 | 1021.9 |
| 20260830010510 | 77 | 108 | 0.0 | 0.0 | 0.00 | 0.00 | 0.00 | 84 | 1021.8 |
| 20260830010010 | 77 | 108 | 0.0 | 0.0 | 0.00 | 0.00 | 0.00 | 84 | 1021.8 |